Flag for Russia Weather past 2 weeks in Voronezh, Russia

Now
55 °F

Clear.


Feels Like: 55 °F
Forecast: 56 / 81 °F
Wind: No wind

Location: Voronez

Current Time: Sep 4, 2015 at 7:40:44 AM

Latest Report: Sep 4, 2015 at 7:00 AM


Visibility: 4 mi

Pressure: 29.86 "Hg

Humidity: 94%

Dew point: 54 °F

Location of VoronezhLocation

Historic Weather in Voronezh — Graph

°F

Voronezh temperature yesterday

Maximum temperature yesterday: 72 °F (at 2:00 PM)
Minimum temperature yesterday: 54 °F (at 5:00 AM)
Average temperature yesterday: 64 °F

Past Weeks' High & Low Weather Summary

 TemperatureHumidityPressure
High84 °F (Aug 27, 2:30 PM)100% (Sep 4, 5:30 AM)30.30 "Hg (Sep 4, 5:30 AM)
Low37 °F (Aug 25, 4:30 AM)13% (Aug 26, 3:30 PM)29.77 "Hg (Sep 3, 1:30 AM)
Average63 °F54%30.06 "Hg
* Reported Aug 20 6:00 AM — Sep 4 6:00 AM, Voronezh, Weather by CustomWeather, © 2015

Note: Actual official high and low records may vary slightly from our data, if they occured in-between our weather recording intervals... More about our weather records

Advertising

Voronezh weather history for previous 24 hours

 ConditionsComfort  
Time TempWeatherWind HumidityBarometerVisibility
6:00 AM
Fri, Sep 4
54 °FCool.1 mph94%29.86 "Hg0 mi
5:30 AM54 °FCool.No wind100%29.86 "Hg0 mi
5:00 AM55 °FCool.1 mph94%29.86 "Hg1 mi
4:30 AM55 °FFog.3 mph94%29.86 "Hg3 mi
4:00 AM55 °FPassing clouds.3 mph94%29.86 "Hg6 mi
3:30 AM57 °FPassing clouds.8 mph88%29.86 "HgN/A
3:00 AM57 °FPassing clouds.8 mph94%29.89 "HgN/A
2:30 AM57 °FThundershowers. Passing clouds.3 mph94%29.89 "HgN/A
2:00 AM59 °FThunderstorms. Passing clouds.13 mph88%29.92 "Hg6 mi
1:30 AM59 °FSprinkles. Passing clouds.8 mph82%29.83 "HgN/A
1:00 AM61 °FPassing clouds.8 mph77%29.86 "HgN/A
12:00 AM63 °FThundershowers. Passing clouds.3 mph73%29.86 "HgN/A
11:30 PM
Thu, Sep 3
63 °FThundershowers. Passing clouds.10 mph68%29.86 "HgN/A
11:00 PM63 °FPassing clouds.10 mph68%29.86 "HgN/A
10:30 PM64 °FPassing clouds.10 mph64%29.86 "HgN/A
10:00 PM64 °FPassing clouds.10 mph68%29.86 "HgN/A
9:30 PM64 °FPassing clouds.8 mph64%29.86 "HgN/A
9:00 PM64 °FPassing clouds.8 mph68%29.89 "HgN/A
8:30 PM64 °FPassing clouds.8 mph68%29.89 "HgN/A
8:00 PM66 °FPartly sunny.8 mph64%29.89 "HgN/A
7:30 PM66 °FPartly sunny.6 mph64%29.86 "HgN/A
7:00 PM66 °FSprinkles. Partly sunny.6 mph68%29.86 "HgN/A
6:00 PM70 °FSunny.6 mph57%29.86 "Hg10 mi
5:30 PM70 °FSunny.6 mph57%29.86 "Hg10 mi
5:00 PM72 °FSunny.8 mph53%29.86 "Hg10 mi
4:30 PM72 °FSunny.10 mph53%29.86 "Hg10 mi
4:00 PM72 °FSunny.10 mph53%29.86 "Hg10 mi
3:30 PM72 °FSunny.10 mph53%29.86 "Hg10 mi
3:00 PM72 °FSunny.8 mph50%29.86 "Hg10 mi
2:30 PM72 °FSunny.8 mph50%29.86 "Hg10 mi
2:00 PM72 °FScattered clouds.10 mph50%29.86 "HgN/A
1:30 PM70 °FScattered clouds.8 mph57%29.86 "HgN/A
1:00 PM68 °FScattered clouds.8 mph60%29.83 "HgN/A
12:30 PM64 °FSprinkles. Partly sunny.3 mph73%29.83 "HgN/A
12:00 PM68 °FSprinkles. Partly sunny.8 mph53%29.86 "HgN/A
11:30 AM70 °FSunny.8 mph50%29.83 "Hg10 mi
11:00 AM70 °FPassing clouds.6 mph46%29.83 "HgN/A
10:30 AM70 °FPassing clouds.8 mph50%29.83 "HgN/A
10:00 AM68 °FPassing clouds.3 mph53%29.83 "HgN/A
9:30 AM66 °FSunny.6 mph52%29.83 "Hg10 mi
9:00 AM64 °FSunny.8 mph56%29.80 "Hg10 mi
8:30 AM63 °FPassing clouds.6 mph59%29.80 "HgN/A
8:00 AM61 °FSunny.6 mph59%29.80 "Hg10 mi
7:30 AM59 °FSunny.3 mph63%29.80 "Hg10 mi
7:00 AM57 °FSunny.6 mph67%29.80 "Hg10 mi
Weather by CustomWeather, © 2015

See weather overviewHow to use our weather pages